Simultaneous Nadir Overpasses (SNOs) Predictions

Prediction of SNOs between AQUA and NOAA-19 Satellite Orbit:

Table of predicted SNOs for the next 14.0 days since TLE Epoch: 9/29/2017
Index Date (AQUA) Time (AQUA) Lat,Lon (AQUA) SZA (AQUA ) Date (NOAA-19) Time (NOAA-19) Lat,Lon (NOAA-19) SZA (NOAA-19 ) Distance(km) Time Diff (sec)
1 09/30/2017 20:30:04 80.94,-167.85 85.92 09/30/2017 20:29:56 80.93,-167.99 85.93 2.66 8
2 10/03/2017 02:03:48 -80.94, -71.30 93.24 10/03/2017 02:03:46 -80.93, -71.41 93.24 2.26 2
3 10/05/2017 07:37:33 80.94, 25.23 87.61 10/05/2017 07:37:26 80.93, 25.32 87.59 2.16 7
4 10/07/2017 13:11:16 -80.92, 122.09 91.61 10/07/2017 13:11:15 -80.93, 121.98 91.59 2.35 1
5 10/09/2017 18:45:01 80.94,-141.55 89.26 10/09/2017 18:44:56 80.93,-141.49 89.25 1.22 5




NCC Satellite Simultaneous Nadir Overpasses (SNOs) Prediction Service
